24h Messdaten per 16.09.2019 um 08:08:01

Datum Zeit Luftdruck Temp Balkon Feuchte Balkon Temp Strasse Feuchte Strasse Wind km/h Wind Boe Wind aus (Grad) Regen l/15min Licht Lux Sonne h/Monat
16.09.19 08:08:01 1012 12.6 50 15.0 89
16.09.19 08:03:01 1012 15.0 89
16.09.19 07:58:01 1012 12.8 49 14.9 90
16.09.19 07:53:01 1012 12.8 51 14.8 90
16.09.19 07:48:01 1012 12.4 53 14.8 90
16.09.19 07:43:01 1012 12.3 54 14.7 90
16.09.19 07:38:01 1012 12.1 54 14.7 90
16.09.19 07:33:01 12.1 55 14.7 90
16.09.19 07:28:01 1012 12.0 56 14.6 90
16.09.19 07:23:02 1012 11.8 58 14.6 90
16.09.19 07:18:01 1012 11.6 57 14.6 90
16.09.19 07:13:01 1012 11.6 57 14.6 90 0.0
16.09.19 07:08:02 1012 11.7 58 14.5 90 0.0
16.09.19 07:03:02 1012 11.8 59 14.5 90 0.0
16.09.19 06:58:02 1012 11.6 61 14.5 90 0.0
16.09.19 06:53:01 1011 11.4 62 14.5 90 0.0
16.09.19 06:48:01 1011 11.5 65 14.5 90 0.0
16.09.19 06:43:01 1011 11.5 66 14.5 90 0.0
16.09.19 06:38:05 1012 11.3 66 14.4 90 0.0
16.09.19 06:33:05 1012 11.3 67 14.4 90 0.0
16.09.19 06:28:05 1012 11.1 68 14.4 90 0.0
16.09.19 06:23:02 1012 11.0 68 14.3 90 0.0
16.09.19 06:18:02 1012 11.0 68 14.3 90 0.0
16.09.19 06:13:01 1012 10.8 69 14.3 90 0.7 0.0 90 0.0
16.09.19 06:08:01 1012 10.8 69 14.3 90 0.7 0.0 90 0.0
16.09.19 06:03:01 1012 10.7 69 14.3 90 0.4 1.4 112.5 0.0
16.09.19 05:58:01 1012 10.7 69 14.3 90 0.4 0.0 135 0.0
16.09.19 05:53:02 1012 10.7 69 14.3 90 0.4 0.0 135 0.0
16.09.19 05:48:02 1012 10.7 69 14.2 90 0.7 2.2 112.5 0.0
16.09.19 05:43:01 1012 10.6 68 14.2 90 0.4 1.4 135 0.0
16.09.19 05:38:01 1012 10.6 68 14.2 89 0.4 1.4 135 0.0
16.09.19 05:33:01 1012 10.7 68 14.2 89 0.7 0.0 67.5 0.0
16.09.19 05:28:01 1012 10.7 67 14.2 89 0.0 0.0 112.5 0.0
16.09.19 05:23:02 1013 10.7 67 14.2 89 0.0 0.0 112.5 0.0
16.09.19 05:18:02 1013 10.7 66 14.3 89 0.0 2.5 135 0.0
16.09.19 05:13:02 1013 10.8 66 14.4 89 1.1 0.0 247.5 0.0
16.09.19 05:08:01 1013 10.8 66 1.1 0.0 247.5 0.0
16.09.19 05:03:01 1013 10.9 66 14.5 89 1.4 2.2 112.5 0.0
16.09.19 04:58:01 1013 11.1 66 14.5 88 0.7 0.0 45 0.0
16.09.19 04:53:02 1013 11.0 67 14.4 88 0.7 0.0 45 0.0
16.09.19 04:48:02 1013 10.9 67 14.4 88 0.4 2.5 112.5 0.0
16.09.19 04:43:01 1013 10.8 67 14.4 88 0.4 0.0 135 0.0
16.09.19 04:38:02 1013 10.9 67 14.5 88 0.4 0.0 135 0.0
16.09.19 04:33:02 1013 10.8 68 14.6 87 0.4 1.4 135 0.0
16.09.19 04:28:02 1013 10.9 67 14.5 87 0.7 2.2 90 0.0
16.09.19 04:23:02 1013 10.8 67 14.5 87 0.7 2.2 90 0.0
16.09.19 04:18:01 1013 10.7 66 14.5 87 0.7 1.8 112.5 0.0
16.09.19 04:13:01 1013 10.3 64 14.6 86 0.4 0.0 135 0.0
16.09.19 04:08:02 1013 10.8 64 14.6 86 0.4 0.0 135 0.0
16.09.19 04:03:02 1013 10.8 64 14.6 86 1.1 1.4 135 0.0
16.09.19 03:58:02 1013 11.0 63 14.6 85 1.4 1.8 112.5 0.0
16.09.19 03:53:02 1013 11.1 62 14.6 85 1.4 1.8 112.5 0.0
16.09.19 03:48:02 1013 11.1 61 14.7 85 0.7 2.2 112.5 0.0
16.09.19 03:43:02 1013 11.2 60 14.8 84 0.0 1.8 90 0.0
16.09.19 03:38:02 1013 11.4 61 14.9 84 0.0 1.8 90 0.0
16.09.19 03:33:02 1013 11.5 60 15.0 84 0.4 0.0 67.5 0.0
16.09.19 03:28:02 1013 11.6 60 15.1 83 0.7 1.8 112.5 0.0
16.09.19 03:23:02 1013 11.6 59 15.2 83 0.7 1.8 112.5 0.0
16.09.19 03:18:02 1013 11.7 59 15.2 83 0.4 1.8 67.5 0.0
16.09.19 03:13:02 1013 11.7 59 15.2 83 0.4 0.0 67.5 0.0
16.09.19 03:08:02 1013 11.6 58 15.2 82 0.4 0.0 67.5 0.0
16.09.19 03:03:02 1013 15.2 82 0.4 0.0 112.5 0.0
16.09.19 02:58:01 1013 11.5 55 15.1 82 0.4 1.4 112.5 0.0
16.09.19 02:52:00 1013 11.5 54 15.1 82 0.7 0.0 112.5 0.0
16.09.19 02:47:00 1013 11.7 55 15.0 82 0.4 0.0 90 0.0
16.09.19 02:42:00 1013 11.2 53 14.8 81 0.4 2.2 135 0.0
16.09.19 02:37:00 1013 11.5 53 14.8 81 0.0 0.0 22.5 0.0
16.09.19 02:32:00 1013 11.6 52 14.8 81 0.0 1.4 112.5 0.0
16.09.19 02:27:00 1013 11.8 53 15.1 81 0.0 1.4 90 0.0
16.09.19 02:22:00 1013 11.8 53 15.1 80 0.0 0.0 90 0.0
16.09.19 02:17:00 1013 11.7 52 15.0 80 0.0 0.0 112.5 0.0
16.09.19 02:12:00 1013 14.9 79 0.0 0.0 67.5 0.0
16.09.19 02:07:00 1013 11.7 53 15.0 78 0.4 0.0 112.5 0.0
16.09.19 02:02:00 1013 11.5 54 15.0 77 0.4 0.0 112.5 0.0
16.09.19 01:57:00 1013 11.2 53 14.9 77 0.0 2.5 135 0.0
16.09.19 01:52:00 1013 11.2 53 14.8 76 0.4 0.0 67.5 0.0
16.09.19 01:47:00 1014 11.0 53 14.8 76 1.1 1.4 112.5 0.0
16.09.19 01:42:00 1014 10.9 52 14.8 75 1.1 2.2 90 0.0
16.09.19 01:37:00 1014 11.0 53 14.8 75 0.4 0.0 90 0.0
16.09.19 01:32:00 1014 11.0 53 14.8 74 0.7 0.0 157.5 0.0
16.09.19 01:27:00 1014 10.8 52 14.8 73 0.4 1.8 112.5 0.0
16.09.19 01:22:00 1014 10.8 52 14.8 73 0.4 1.8 112.5 0.0
16.09.19 01:17:00 1014 10.7 52 14.7 72 0.0 0.0 157.5 0.0
16.09.19 01:12:00 1014 10.7 51 14.8 72 0.0 0.0 112.5 0.0
16.09.19 01:07:00 1014 14.8 71 0.0 0.0 135 0.0
16.09.19 01:02:00 1014 10.9 51 14.8 71 0.0 0.0 315 0.0
16.09.19 00:57:00 1014 10.8 50 14.9 70 0.0 0.0 157.5 0.0
16.09.19 00:52:01 1014 10.8 50 15.0 69 0.0 0.0 135 0.0
16.09.19 00:47:00 1014 10.9 50 15.1 69 0.0 0.0 135 0.0
16.09.19 00:42:00 1014 11.0 49 15.1 69 0.0 0.0 90 0.0
16.09.19 00:37:00 1014 11.1 48 15.2 69 0.4 0.0 22.5 0.0
16.09.19 00:32:00 1014 11.2 47 15.2 68 0.7 0.0 135 0.0
16.09.19 00:27:00 1014 11.3 47 15.1 68 1.4 0.0 67.5 0.0
16.09.19 00:22:00 1014 11.3 47 15.2 67 1.8 2.2 67.5 0.0
16.09.19 00:17:00 1014 11.4 46 15.3 66 1.4 4.0 90 0.0
16.09.19 00:12:00 1014 11.3 46 15.4 66 1.4 1.4 135 0.0
16.09.19 00:07:00 1014 11.4 46 15.4 65 0.7 1.8 67.5 0.0
16.09.19 00:02:00 1014 15.5 65 0.4 2.2 90 0.0
15.09.19 23:57:00 1014 11.4 46 15.6 64 0.7 2.2 180 0.0
15.09.19 23:52:01 1014 11.4 45 15.7 63 1.1 0.0 135 0.0
15.09.19 23:47:00 1014 11.5 45 15.7 63 1.4 2.2 67.5 0.0
15.09.19 23:42:00 1014 11.6 45 15.8 62 1.4 2.2 135 0.0
15.09.19 23:37:00 1014 11.7 44 15.9 61 2.2 2.5 135 0.0
15.09.19 23:32:00 1014 11.8 43 16.0 61 2.2 0.0 67.5 0.0
15.09.19 23:27:00 1014 16.1 60 2.2 3.2 135 0.0
15.09.19 23:22:00 1014 12.3 41 16.3 60 2.2 2.9 135 0.0
15.09.19 23:17:00 1014 12.5 41 16.3 60 1.8 2.5 112.5 0.0
15.09.19 23:12:00 1014 11.9 42 16.3 59 1.8 3.6 157.5 0.0
15.09.19 23:07:00 1014 12.1 42 16.4 58 1.4 0.0 112.5 0.0
15.09.19 23:02:00 1014 12.2 42 16.4 58 1.8 2.9 112.5 0.0
15.09.19 22:57:00 1014 12.4 41 16.5 58 1.4 1.4 112.5 0.0
15.09.19 22:52:00 1014 12.3 41 16.5 57 1.4 2.2 90 0.0
15.09.19 22:47:00 1014 12.5 41 16.7 56 0.7 2.9 112.5 0.0
15.09.19 22:42:00 1014 12.4 40 16.8 56 1.1 1.4 67.5 0.0
15.09.19 22:37:00 1014 12.4 40 16.9 56 1.4 0.0 112.5 0.0
15.09.19 22:32:00 1014 12.7 40 17.0 55 2.2 2.5 135 0.0
15.09.19 22:27:00 1014 13.0 39 17.1 54 1.8 2.5 112.5 0.0
15.09.19 22:22:00 1014 12.9 39 17.2 52 1.4 2.9 112.5 0.0
15.09.19 22:17:00 1014 13.2 38 17.3 51 1.4 0.0 112.5 0.0
15.09.19 22:12:00 1014 13.1 36 17.4 51 1.8 2.2 67.5 0.0
15.09.19 22:07:00 1014 13.8 34 17.6 49 1.4 3.6 112.5 0.0
15.09.19 22:02:00 1014 14.2 33 17.6 48 1.4 0.0 67.5 0.0
15.09.19 21:57:00 13.8 34 17.6 48 1.4 2.2 90 0.0
15.09.19 21:52:01 1014 13.5 36 17.6 48 1.4 3.2 112.5 0.0
15.09.19 21:47:01 1014 17.8 46 1.4 1.8 67.5 0.0
15.09.19 21:42:01 1014 14.0 34 17.9 45 1.8 2.9 112.5 0.0
15.09.19 21:37:00 1014 14.3 33 18.0 43 1.4 2.2 112.5 0.0
15.09.19 21:32:00 1014 14.3 33 18.1 43 1.4 1.8 135 0.0
15.09.19 21:27:00 1014 14.5 33 18.2 42 1.4 0.0 45 0.0
15.09.19 21:22:00 1014 14.5 33 18.3 42 1.1 2.2 112.5 0.0
15.09.19 21:17:00 1014 14.7 32 18.4 42 0.4 1.8 112.5 0.0
15.09.19 21:12:00 1014 15.0 31 18.5 41 0.7 0.0 112.5 0.0
15.09.19 21:07:01 1014 14.8 32 18.6 41 0.7 2.9 90 0.0
15.09.19 21:02:01 1014 14.8 31 18.8 40 1.1 0.0 90 0.0
15.09.19 20:57:01 1014 15.3 30 19.1 39 1.4 0.0 112.5 0.0
15.09.19 20:52:00 15.7 28 19.1 38 0.7 2.2 67.5 0.0
15.09.19 20:47:00 15.3 29 19.2 38 0.4 0.0 45 0.0
15.09.19 20:42:00 1014 15.2 29 19.5 37 0.0 0.0 90 0.0
15.09.19 20:37:00 1014 15.3 28 19.7 36 0.4 0.0 90 0.0
15.09.19 20:32:00 1014 15.6 27 19.9 34 0.4 0.0 135 0.0
15.09.19 20:27:00 1014 16.2 25 20.0 34 0.7 0.0 90 0.0
15.09.19 20:22:01 1014 15.7 27 20.3 33 0.4 1.8 180 0.0
15.09.19 20:17:01 1014 16.2 20 20.5 31 0.0 1.4 112.5 0.0
15.09.19 20:12:00 1014 17.1 20 20.5 31 0.7 0.0 112.5 0.0
15.09.19 20:07:00 1014 17.1 20 20.7 31 1.1 2.9 112.5 0.0
15.09.19 20:02:00 1014 16.1 20 21.1 31 1.1 2.5 112.5 0.0
15.09.19 19:57:00 1014 16.8 20 21.3 29 1.4 4.0 135 0.0
15.09.19 19:52:00 1014 17.4 20 21.4 28 1.4 2.2 45 0.0
15.09.19 19:47:00 1014 17.8 20 21.8 25 1.4 1.8 112.5 0.0
15.09.19 19:42:00 1014 18.2 20 21.9 24 1.4 1.4 67.5 0.0
15.09.19 19:37:01 1014 18.6 20 22.0 23 1.4 3.2 90 0.0
15.09.19 19:32:00 1014 19.5 20 22.2 22 1.4 2.2 112.5 0.0
15.09.19 19:27:00 1014 19.6 20 22.4 20 1.1 2.5 112.5 0.0
15.09.19 19:22:01 1014 19.8 20 22.5 20 1.1 2.5 112.5 0.0
15.09.19 19:17:01 1014 20.5 20 22.6 20 1.4 2.2 112.5 0.0
15.09.19 19:12:01 1014 20.4 20 22.8 20 0.7 2.2 112.5 0.0
15.09.19 19:07:01 1014 20.8 20 22.9 20 0.4 0.0 112.5 0.0
15.09.19 19:02:00 1013 20.8 20 23.0 20 0.7 2.2 67.5 0.0
15.09.19 18:57:00 1013 21.0 20 23.0 20 0.7 0.0 67.5 0.0
15.09.19 18:52:01 1013 21.1 20 23.1 20 0.4 2.5 67.5 0.0
15.09.19 18:47:01 1013 21.3 20 23.2 20 0.0 1.8 112.5 0.0
15.09.19 18:42:00 1013 21.2 20 23.2 20 0.0 0.0 90 0.0
15.09.19 18:37:00 1013 21.7 20 23.3 20 0.4 0.0 67.5 0.0
15.09.19 18:32:00 1013 21.8 20 23.4 20 0.0 0.0 67.5 0.0
15.09.19 18:27:00 1013 21.7 20 23.4 20 0.0 0.0 112.5 0.0
15.09.19 18:22:01 1013 22.2 20 23.4 20 0.7 0.0 90 0.0
15.09.19 18:17:01 1013 22.5 20 23.6 20 1.1 2.5 112.5 0.0
15.09.19 18:12:01 1013 22.6 20 23.6 20 0.4 0.0 45 0.0
15.09.19 18:07:00 1014 23.1 20 23.6 20 0.0 0.0 112.5 0.0
15.09.19 18:02:00 1014 23.7 20 23.7 20 0.0 0.0 135 0.0
15.09.19 17:57:00 1014 25.3 20 23.8 20 0.0 0.0 90 0.0
15.09.19 17:52:01 1014 26.3 20 23.8 20 0.0 0.0 135 0.0
15.09.19 17:47:01 1014 27.3 20 23.9 20 0.4 0.0 112.5 0.0
15.09.19 17:42:01 1014 27.3 20 23.9 20 0.7 0.0 112.5 0.0
15.09.19 17:37:01 1014 27.4 20 24.0 20 0.7 0.0 67.5 0.0
15.09.19 17:32:01 1014 26.7 20 23.8 20 0.4 0.0 90
15.09.19 17:27:01 1014 25.9 20 1.1 1.8 112.5 0.0
15.09.19 17:22:01 1014 23.8 20 1.4 0.0 90 0.0
15.09.19 17:17:01 1014 23.8 20 1.4 3.6 22.5 0.0
15.09.19 17:12:01 1014 23.8 20 1.4 0.0 22.5 0.0
15.09.19 17:07:00 1014 25.6 20 23.8 20 1.4 2.2 67.5 0.0
15.09.19 17:02:00 1014 26.2 20 23.9 20 1.4 4.3 112.5 0.0
15.09.19 16:57:00 1014 26.2 20 23.9 20 1.8 2.5 45 0.0
15.09.19 16:52:25 1014 27.0 20 23.9 20 1.4 2.2 135 0.0
15.09.19 16:47:25 1014 25.2 20 23.9 20 1.1 2.9 67.5 0.0
15.09.19 16:42:25 1014 25.7 20 23.9 20 0.7 0.0 67.5 0.0
15.09.19 16:37:25 1014 24.2 20 24.0 20 1.4 2.5 202.5 0.0
15.09.19 16:32:25 1014 27.3 20 24.0 20 1.4 2.5 202.5 0.0
15.09.19 16:27:25 1014 25.8 20 24.0 20 3.2 3.6 90 0.0
15.09.19 16:22:24 1014 24.6 20 23.9 20 3.6 5.0 112.5 0.0
15.09.19 16:17:24 1014 24.9 20 23.9 20 3.2 5.8 112.5 0.0
15.09.19 16:12:24 1014 28.0 20 23.9 20 2.5 2.9 202.5 0.0
15.09.19 16:07:24 1014 25.5 20 23.9 20 1.8 4.0 90 0.0
15.09.19 16:02:24 1014 25.5 20 23.9 20 1.8 2.5 67.5 0.0
15.09.19 15:57:24 1014 25.7 20 23.8 20 2.5 6.5 135 0.0
15.09.19 15:52:24 1015 25.0 20 23.8 20 2.9 2.5 202.5 0.0
15.09.19 15:47:24 1015 25.0 20 23.8 20 2.9 3.6 90
15.09.19 15:42:24 1015 26.5 20 2.2 1.8 45
15.09.19 15:37:24 1015 26.4 20 23.8 20 2.5 1.8 90
15.09.19 15:32:24 1015 26.4 20 23.8 20 2.9 6.1 67.5
15.09.19 15:27:24 1015 27.6 20 24.0 20 2.9 4.7 112.5
15.09.19 15:22:24 1015 30.2 20 24.0 20 2.9 5.4 67.5
15.09.19 15:17:24 1015 25.6 20 24.0 20 2.5 1.8 315
15.09.19 15:12:24 1015 28.4 20 23.9 20 2.9 4.3 135
15.09.19 15:07:24 1015 26.5 20 23.9 20 2.5 1.8 315
15.09.19 15:02:23 1015 28.3 20 23.9 20 2.2 5.4 112.5
15.09.19 14:57:23 1015 28.7 20 23.7 20 2.5 2.5 67.5
15.09.19 14:52:23 1015 24.5 20 23.6 20 2.9 0.0 67.5
15.09.19 14:47:23 1015 28.1 20 23.5 20 2.9 0.0 67.5
15.09.19 14:42:23 1015 30.8 20 23.5 20
15.09.19 14:37:23 1015 26.3 20 23.4 20
15.09.19 14:32:23 1015 26.9 20 23.2 20
15.09.19 14:27:23 1015 28.4 20 23.3 20
15.09.19 14:22:23 1016 26.9 20 23.4 20
15.09.19 14:17:23 1016 25.3 20 23.3 20
15.09.19 14:12:23 1016 27.7 20
15.09.19 14:07:23 1016 28.6 20 23.0 20
15.09.19 14:02:23 1016 27.6 20 23.1 20
15.09.19 13:57:23 1016 27.1 20 23.1 20
15.09.19 13:52:23 1016 27.4 20 23.0 20
15.09.19 13:47:23 1016 27.4 20 23.0 21
15.09.19 13:42:22 1016 26.2 20 22.9 20
15.09.19 13:37:22 1016 26.6 20 22.8 20
15.09.19 13:32:22 1016 25.0 20 22.8 20
15.09.19 13:27:22 1016 25.5 20 22.7 20
15.09.19 13:22:22 1016 24.0 20 22.6 20
15.09.19 13:17:22 1016 22.9 20 22.6 20
15.09.19 13:12:22 1016 24.1 20 22.5 24
15.09.19 13:07:22 1016 22.8 20 22.3 24
15.09.19 13:02:22 1016 22.2 20 22.2 24
15.09.19 12:57:22 1016 22.6 20 22.2 21
15.09.19 12:52:22 1016 22.7 20 22.1 27
15.09.19 12:47:22 1016 22.3 20 22.0 25
15.09.19 12:42:22 1016 21.9 20 21.7 27
15.09.19 12:37:22 1016 21.4 20 21.7 27
15.09.19 12:32:22 1016 21.4 20 21.5 24
15.09.19 12:27:21 1016 21.2 20 21.6 26
15.09.19 12:22:21 1016 22.1 20 21.5 28
15.09.19 12:17:21 1016 21.8 20 21.4 28
15.09.19 12:12:21 1016 21.8 20 21.2 27
15.09.19 12:07:21 1016 21.4 20 21.0 30
15.09.19 12:02:21 1016 22.1 20 20.9 30
15.09.19 11:57:21 1016 21.7 20 20.7 34
15.09.19 11:52:21 1016 21.9 20
15.09.19 11:47:21 1016 26.4 20 20.2 35
15.09.19 11:42:21 1016 22.9 20 20.2 35
15.09.19 11:37:21 1016 21.4 20 20.0 38
15.09.19 11:32:21 1016 21.3 20 19.6 39
15.09.19 11:27:21 1016 21.8 20 19.5 40
15.09.19 11:22:21 1016 23.7 20 19.3 41
15.09.19 11:17:21 1016 23.4 20 19.2 41
15.09.19 11:12:21 1016 23.7 20 19.1 42
15.09.19 11:07:20 1016 23.7 20 19.0 43
15.09.19 11:02:20 1016 24.7 20 18.7 47
15.09.19 10:57:20 1016 23.7 20 18.6 51
15.09.19 10:52:20 1016 25.0 20 18.4 54
15.09.19 10:47:20 1016 26.1 20 18.4 57
15.09.19 10:42:20 1016 23.3 20 18.0 62
15.09.19 10:37:20 1016 25.7 20 17.8 65
15.09.19 10:32:20 1016 26.5 20 17.7 66
15.09.19 10:27:20 1016 22.7 20 17.5 67
15.09.19 10:22:20 1016 26.0 20 17.1 70
15.09.19 10:17:20 1016 25.7 20 16.7 74
15.09.19 10:12:20 1016 24.5 20 16.6 75
15.09.19 10:07:20 1016 19.4 21 16.5 78
15.09.19 10:02:20 1016 20.9 24
15.09.19 09:57:20 1016 18.2 28 16.2 82
15.09.19 09:52:20 1016 17.3 31 15.9 84
15.09.19 09:47:19 1016 17.1 31 15.6 86
15.09.19 09:42:19 17.0 32 15.5 88
15.09.19 09:37:19 1017 16.6 35 15.4 88
15.09.19 09:32:19 1016 15.6 37 15.2 89
15.09.19 09:27:19 1016 15.4 37 15.0 90
15.09.19 09:22:19 1016 15.3 37 14.7 91
15.09.19 09:17:19 1016 15.2 37 14.6 91
15.09.19 09:12:19 15.1 38 14.4 92
15.09.19 09:07:19 1016 14.9 38 14.1 93
15.09.19 09:02:19 1016 16.0 35 13.9 93
15.09.19 08:57:19 1016 15.8 34 13.6 93
15.09.19 08:52:19 1016 15.8 35 13.2 93
15.09.19 08:47:19 1016 16.1 36 12.8 93
15.09.19 08:42:19 1016 16.7 39 12.6 93
15.09.19 08:37:19 1016 14.1 61 12.4 93
15.09.19 08:32:18 12.1 69 12.1 93
15.09.19 08:27:18 1016 11.4 71 11.9 92
15.09.19 08:22:18 1016 8.7 72 11.8 92
15.09.19 08:17:18 1017 8.0 72 11.7 92
15.09.19 08:12:18 1017 7.8 72 11.7 91
Index
© 2002-2012 Thomas Dreßler
Alle Rechte vorbehalten
letzte Scriptänderung 12.11.2012